Location: General Nathan Twining Observatory
(34.5931°N, 106.8201°W)
Time: 10:05:13
(UTC-07:00)

GPS 2-04 Rocket1 - Pass Details

Date: 20 September 2017
Orbit: 420 x 564 km, 35.6° (Epoch: 13 December)

Event Time Altitude Azimuth Distance (km) Brightness Sun altitude
Rises 20:52:44 0° 278° (W) 2,747 7.8 -22.4°
Reaches altitude 10° 20:55:15 10° 266° (W) 1,854 6.4 -22.9°
Maximum altitude 20:58:55 28° 207° (SSW) 1,078 4.3 -23.6°
Enters shadow 20:59:12 27° 200° (SSW) 1,084 4.3 -23.7°
